Location: Bishop�s Knoyle
(51.0728°N, 2.1714°W)
Time: 03:28:03
(UTC+00:00)

Cosmos 1464 Rocket - Pass Details

Date: 18 September 2020
Orbit: 953 x 1001 km, 82.9° (Epoch: 19 October)

Event Time Altitude Azimuth Distance (km) Brightness Sun altitude
Rises 19:43:02 0° 184° (S) 3,617 6.8 -14.3°
Reaches altitude 10° 19:45:31 10° 184° (S) 2,676 6.1 -14.7°
Maximum altitude 19:51:38 83° 97° (E) 972 3.9 -15.6°
Drops below altitude 10° 19:57:50 10° 11° (NNE) 2,712 6.5 -16.5°
Sets 20:00:22 0° 11° (N) 3,669 7.2 -16.8°
